千帆星座-10 (QIANFAN-10)

导读

QIANFAN-10 是中国自主研发的高分辨率遥感卫星,主要用于地球观测和环境监测。该卫星具备先进的光学成像能力,能够在多种气象条件下获取高清晰度的地表图像。QIANFAN-10 的发射提升了我国在资源调查、灾害预警、城市规划等领域的应用能力,为国家可持续发展提供了有力支持。

基本信息
目录编号:
60388
目录名称:
QIANFAN-10
国际标识:
2024-140K
轨道中心:
EARTH
卫星名称:
千帆星座-10 (QIANFAN-10)
卫星全名:
千帆星座-10 (QIANFAN-10)
卫星状态:
在轨 (已飞行676 天)
发射日期:
2024-08-06 UTC
国别 :
中国 (CN)
星等 :
--
轨道信息
数据来源 国际轨道数据 AOE轨道数据
星历时间 2026-06-13T03:26:55+0800
6小时前
查看轨道信息
2026-06-13T05:00:00+0800
4小时前
查看轨道信息
半长轴 7446.663km 7446.686km
偏心率 0.001464 0.0014667
轨道倾角 88.975° 88.982°
近地点辐角 18.063° 13.992°
升交点赤经 279.814° 279.810°
平近点角 342.104° 300.350°
近地点 1057.624km 1057.626km
远地点 1079.428km 1079.472km
周期 106.587分钟 106.587分钟
每日圈数 13.510153 13.510089
详细信息
运营商:
上海垣信卫星科技有限公司
运营商所在国:
中国
使用方式:
暂无
卫星简介
千帆星座,也被称为“G60星链”计划,是中国版“星链”的重要组成部分,旨在打造一个由1.4万多颗低轨宽频多媒体卫星构成的庞大星座。千帆星座计划由上海垣信卫星科技有限公司负责实施,于2023年启动建设。该项目是我国第二个低轨卫星大星座,旨在通过构建庞大的卫星网络,为全球用户提供高质量的通信和宽带互联网服务。
2D轨道图
3D轨道图
轨道高度分析图
轨道倾角分析图
轨道综合分析图
查看轨道综合分析图